Погода в Красной Звезде

Россия / Саратовская область     52°11′56″N   43°26′43″E
темп.,
°C
ветер,
м/с
пор.,
м/с
влажн.,
%
обл.,
%
осадки,
мм/ч
давл.,
гПа
погр.,
м
20 апреля, вт
вт2001:00+7в61190100 0.6 1019662
04:00+5в71290100 1.4 1018572
07:00+4в71490100 1.0 1019648
10:00+4в81488100 1.4 1019669
13:00+4вюв81590100 0.6 1018700
16:00+4вюв81688100 2.6 1017729
19:00+4вюв91989100 4.1 1014742
22:00+6вюв132492100 12.8 1009907
21 апреля, ср
ср2101:00+8юв132391100 6.3 1007987
04:00+9ююв122087100 8.0 1009796
07:00+8юв101889100 0.4 1008797
10:00+12ю9137973 1.4 10101284
13:00+10ю91383100 0.4 10111089
16:00+9юз6108267 1.2 1013858
19:00+10юз477789 0.1 1015547
22:00+8ю3793100 1.6 1017149
22 апреля, чт
чт2201:00+7ю479312 0.8 1018143
04:00+6ююз379212 0.8 1019133
07:00+6ююв369060 0.0 1020132
10:00+9ююз477788 0.0 1021423
13:00+14ююз585949 0.4 10201561
16:00+15зюз5748100 1.2 10202308
19:00+12з226293 0.0 102139
22:00+10зюз116349 0.0 102210
23 апреля, пт
пт2301:00+10вюв2265100 0.0 102212
04:00+10ююв2273100 0.0 102221
07:00+10юв3378100 0.0 102350
10:00+13ююв346690 0.0 1023351
13:00+16ююв224499 0.1 10221932
16:00+16юв324992 0.2 10211243
19:00+14юв35626 0.2 1020114
22:00+10юв35745 0.3 102079
24 апреля, сб
сб2401:00+9ююв368089 0.0 101995
04:00+8ююв358458 0.0 101791
07:00+8ююв378891 0.1 1016178
10:00+13ю576927 0.5 1015667
13:00+15ю6757100 1.8 10121448
16:00+15ююз6956100 3.9 10101699
19:00+11з6977100 0.9 1009637
22:00+6з7128539 7.0 1013926